Flag for Norway Weather past 2 weeks in Sandefjord, Norway

Now
28 °F

Chilly.


Feels Like: 25 °F
Forecast: 40 / 48 °F
Wind: 3 mph from Southwest

Location: Torp

Current Time: Mar 5, 2015 at 4:09:18 AM

Latest Report: Mar 5, 2015 at 2:50 AM


Visibility: N/A

Pressure: 30.18 "Hg

Humidity: 74%

Dew point: 21 °F

Location of SandefjordLocation

Historic Weather in Sandefjord — Graph

°F

Sandefjord temperature yesterday

Maximum temperature yesterday: 43 °F (at 2:20 PM)
Minimum temperature yesterday: 27 °F (at 3:50 AM)
Average temperature yesterday: 34 °F

Past Weeks' High & Low Weather Summary

 TemperatureHumidityPressure
High43 °F (Feb 18, 2:20 AM)100% (Feb 19, 3:50 AM)30.18 "Hg (Feb 19, 3:50 AM)
Low27 °F (Mar 3, 6:20 AM)39% (Mar 4, 2:50 PM)28.97 "Hg (Feb 23, 11:50 AM)
Average37 °F87%29.52 "Hg
* Reported Feb 18 2:20 AM — Mar 5 2:50 AM, Sandefjord, Weather by CustomWeather, © 2015

Note: Actual official high and low records may vary slightly from our data, if they occured in-between our weather recording intervals... More about our weather records

Advertising

Sandefjord weather history for previous 24 hours

 ConditionsComfort  
Time TempWeatherWind HumidityBarometerVisibility
2:50 AM
Thu, Mar 5
28 °FChilly.3 mph74%30.18 "HgN/A
2:20 AM30 °FPassing clouds.5 mph69%30.15 "HgN/A
1:50 AM30 °FPassing clouds.5 mph69%30.15 "HgN/A
1:20 AM30 °FChilly.3 mph69%30.15 "HgN/A
12:50 AM30 °FChilly.6 mph69%30.15 "HgN/A
12:20 AM32 °FChilly.7 mph64%30.12 "HgN/A
11:50 PM
Wed, Mar 4
32 °FChilly.3 mph64%30.12 "HgN/A
11:20 PM32 °FChilly.6 mph64%30.12 "HgN/A
10:20 PM32 °FClear.3 mph64%30.09 "Hg10 mi
9:50 PM34 °FClear.7 mph60%30.09 "Hg10 mi
9:20 PM32 °FPassing clouds.3 mph64%30.07 "HgN/A
8:50 PM32 °FClear.6 mph64%30.07 "Hg10 mi
8:20 PM34 °FPassing clouds.5 mph60%30.07 "HgN/A
7:50 PM36 °FClear.7 mph52%30.04 "Hg10 mi
7:20 PM36 °FClear.7 mph56%30.04 "Hg10 mi
6:50 PM37 °FClear.5 mph48%30.01 "Hg10 mi
6:20 PM37 °FClear.5 mph52%30.01 "Hg10 mi
5:50 PM39 °FSunny.6 mph48%29.98 "Hg10 mi
5:20 PM41 °FSunny.6 mph42%29.98 "Hg10 mi
4:50 PM41 °FSunny.6 mph42%29.95 "Hg10 mi
4:20 PM43 °FSunny.6 mph39%29.95 "Hg10 mi
3:50 PM43 °FPassing clouds.6 mph39%29.92 "HgN/A
3:20 PM43 °FSunny.9 mph39%29.92 "Hg10 mi
2:50 PM43 °FSunny.8 mph39%29.89 "Hg10 mi
2:20 PM43 °FSunny.8 mph42%29.89 "Hg10 mi
1:50 PM41 °FPassing clouds.6 mph42%29.86 "HgN/A
1:20 PM41 °FPassing clouds.5 mph45%29.86 "HgN/A
12:50 PM41 °FPassing clouds.8 mph45%29.86 "HgN/A
12:20 PM41 °FPassing clouds.8 mph45%29.83 "HgN/A
11:50 AM39 °FPassing clouds.7 mph48%29.83 "HgN/A
11:20 AM39 °FPassing clouds.7 mph52%29.80 "HgN/A
10:50 AM37 °FSunny.5 mph52%29.80 "Hg10 mi
10:20 AM36 °FPassing clouds.6 mph56%29.77 "HgN/A
9:50 AM34 °FSunny.2 mph60%29.77 "Hg10 mi
9:20 AM34 °FSunny.3 mph65%29.74 "Hg10 mi
8:50 AM30 °FSunny.1 mph80%29.74 "Hg10 mi
8:20 AM30 °FSunny.2 mph69%29.71 "Hg10 mi
7:50 AM27 °FSunny.1 mph80%29.71 "Hg10 mi
7:20 AM27 °FSunny.2 mph80%29.71 "Hg10 mi
6:50 AM27 °FPassing clouds.5 mph86%29.68 "HgN/A
6:20 AM28 °FClear.5 mph74%29.68 "Hg10 mi
5:50 AM28 °FClear.3 mph74%29.65 "Hg10 mi
5:20 AM28 °FChilly.3 mph80%29.65 "HgN/A
4:50 AM28 °FChilly.8 mph80%29.65 "HgN/A
4:20 AM28 °FChilly.6 mph80%29.65 "HgN/A
Weather by CustomWeather, © 2015

See weather overviewHow to use our weather pages